GW2223 Weather Reports


time (UTC)temp
C
wind
direction
speed
KPH
gust
KPH
rain 1hr
cm
rain 24hr
cm
rain mn
cm
humidity
%
barometer
mb
20260507170145 18 208 4.8 12.9 0.00 0.00 0.00 50 1014.0
20260507165627 17 262 3.2 12.9 0.00 0.00 0.00 51 1014.2
20260507165132 17 223 4.8 9.7 0.00 0.00 0.00 51 1014.2
20260507164640 17 254 4.8 9.7 0.00 0.00 0.00 51 1014.3
20260507164125 17 202 4.8 9.7 0.00 0.00 0.00 51 1014.4
20260507163630 17 234 4.8 9.7 0.00 0.00 0.00 52 1014.5
20260507163135 17 279 3.2 12.9 0.00 0.00 0.00 53 1014.5
20260507162640 16 222 4.8 12.9 0.00 0.00 0.00 54 1014.5
20260507162129 16 196 4.8 9.7 0.00 0.00 0.00 54 1014.6
20260507161655 16 229 3.2 9.7 0.00 0.00 0.00 56 1014.7
20260507161140 16 263 3.2 9.7 0.00 0.00 0.00 57 1014.7
20260507160636 16 195 6.4 11.3 0.00 0.00 0.00 55 1014.7
20260507160154 16 239 3.2 11.3 0.00 0.00 0.00 56 1014.8
20260507155636 15 243 4.8 11.3 0.00 0.00 0.00 57 1014.7
20260507155201 16 239 3.2 11.3 0.00 0.00 0.00 58 1014.9
20260507154627 15 202 4.8 11.3 0.00 0.00 0.00 59 1014.9
20260507154132 15 233 3.2 8.0 0.00 0.00 0.00 60 1015.0
20260507153659 15 126 3.2 8.0 0.00 0.00 0.00 61 1015.1
20260507153124 15 212 3.2 12.9 0.00 0.00 0.00 61 1015.1
20260507152631 14 295 4.8 12.9 0.00 0.00 0.00 62 1015.2
20260507152135 14 228 4.8 12.9 0.00 0.00 0.00 62 1015.3
20260507151622 14 248 4.8 12.9 0.00 0.00 0.00 64 1015.4
20260507151128 13 219 3.2 14.5 0.00 0.00 0.00 63 1015.5
20260507150626 13 292 3.2 14.5 0.00 0.00 0.00 66 1015.6
20260507150122 13 300 4.8 14.5 0.00 0.00 0.00 65 1015.6
20260507145630 13 223 3.2 8.0 0.00 0.00 0.00 65 1015.5
20260507145136 13 257 1.6 8.0 0.00 0.00 0.00 69 1015.6
20260507144642 13 233 3.2 9.7 0.00 0.00 0.00 67 1015.7
20260507144127 13 246 3.2 9.7 0.00 0.00 0.00 68 1015.7
20260507143633 12 232 3.2 8.0 0.00 0.00 0.00 70 1015.8
20260507143137 12 169 3.2 8.0 0.00 0.00 0.00 70 1015.8
20260507142643 12 272 3.2 6.4 0.00 0.00 0.00 72 1015.9
20260507142128 12 263 3.2 6.4 0.00 0.00 0.00 72 1015.9
20260507141632 12 158 3.2 6.4 0.00 0.00 0.00 74 1015.9
20260507141137 11 225 1.6 4.8 0.00 0.00 0.00 76 1016.0
20260507140634 11 211 3.2 4.8 0.00 0.00 0.00 76 1016.1
20260507140133 11 284 3.2 6.4 0.00 0.00 0.00 76 1016.2
20260507135620 10 254 3.2 6.4 0.00 0.00 0.00 77 1016.1
20260507135146 10 242 3.2 6.4 0.00 0.00 0.00 79 1016.2
20260507134631 10 202 1.6 4.8 0.00 0.00 0.00 79 1016.2
20260507134136 10 278 3.2 6.4 0.00 0.00 0.00 80 1016.3
20260507133639 10 232 3.2 6.4 0.00 0.00 0.00 81 1016.2
20260507133123 9 224 3.2 4.8 0.00 0.00 0.00 82 1016.1
20260507132630 9 216 1.6 4.8 0.00 0.00 0.00 83 1016.1
20260507132134 8 305 1.6 4.8 0.00 0.00 0.00 84 1016.2
20260507131640 8 244 3.2 4.8 0.00 0.00 0.00 84 1016.2
20260507131125 8 205 3.2 6.4 0.00 0.00 0.00 85 1016.2
20260507130640 8 202 3.2 6.4 0.00 0.00 0.00 85 1016.1
20260507130132 7 238 3.2 6.4 0.00 0.00 0.00 86 1016.2
20260507125659 7 227 3.2 6.4 0.00 0.00 0.00 86 1016.1
20260507125121 7 224 3.2 6.4 0.00 0.00 0.00 87 1016.2
20260507124630 7 214 3.2 6.4 0.00 0.00 0.00 87 1016.0
20260507124135 7 220 1.6 4.8 0.00 0.00 0.00 88 1016.1
20260507123640 7 204 3.2 4.8 0.00 0.00 0.00 88 1015.9
20260507123126 7 210 3.2 4.8 0.00 0.00 0.00 88 1016.0
20260507122632 7 222 1.6 4.8 0.00 0.00 0.00 88 1016.0
20260507122137 6 223 1.6 4.8 0.00 0.00 0.00 89 1015.9
20260507121622 6 225 1.6 4.8 0.00 0.00 0.00 89 1015.9
20260507121127 6 225 1.6 3.2 0.00 0.00 0.00 90 1015.8
20260507120640 6 227 1.6 3.2 0.00 0.00 0.00 90 1015.8
20260507120136 6 228 1.6 3.2 0.00 0.00 0.00 90 1016.0
20260507115621 6 245 1.6 3.2 0.00 0.00 0.00 91 1016.1
20260507115131 6 245 1.6 3.2 0.00 0.00 0.00 91 1016.1
20260507114637 6 245 1.6 3.2 0.00 0.00 0.00 91 1016.1
20260507114122 6 253 0.0 3.2 0.00 0.00 0.00 91 1016.1
20260507113627 6 253 1.6 3.2 0.00 0.00 0.00 91 1016.1
20260507113133 6 253 1.6 1.6 0.00 0.00 0.00 92 1016.1
20260507112637 5 253 0.0 1.6 0.00 0.00 0.00 91 1016.3
20260507112122 5 253 0.0 1.6 0.00 0.00 0.00 91 1016.3
20260507111628 5 253 0.0 0.0 0.00 0.00 0.00 91 1016.2
20260507111134 5 253 0.0 0.0 0.00 0.00 0.00 91 1016.2
20260507110651 5 253 0.0 1.6 0.00 0.00 0.00 90 1016.3
20260507110126 5 253 0.0 1.6 0.00 0.00 0.00 90 1016.3
20260507105631 5 253 0.0 0.0 0.00 0.00 0.00 90 1016.3
20260507105122 5 253 0.0 0.0 0.00 0.00 0.00 89 1016.2
20260507104628 5 253 0.0 0.0 0.00 0.00 0.00 89 1016.3
20260507104135 5 253 0.0 0.0 0.00 0.00 0.00 89 1016.3
20260507103700 6 253 0.0 0.0 0.00 0.00 0.00 89 1016.3
20260507103124 6 253 0.0 1.6 0.00 0.00 0.00 89 1016.4
20260507102629 6 253 0.0 1.6 0.00 0.00 0.00 89 1016.3
20260507102136 6 253 0.0 1.6 0.00 0.00 0.00 89 1016.2
20260507101621 6 253 0.0 1.6 0.00 0.00 0.00 88 1016.3
20260507101127 6 253 0.0 1.6 0.00 0.00 0.00 88 1016.3
20260507100622 6 253 0.0 3.2 0.00 0.00 0.00 88 1016.3
20260507100140 6 253 0.0 3.2 0.00 0.00 0.00 88 1016.3
20260507095624 6 253 0.0 1.6 0.00 0.00 0.00 88 1016.3
20260507095135 6 260 0.0 1.6 0.00 0.00 0.00 87 1016.3
20260507094700 6 260 0.0 0.0 0.00 0.00 0.00 87 1016.3
20260507094145 6 260 0.0 0.0 0.00 0.00 0.00 85 1016.3
20260507093629 7 260 0.0 1.6 0.00 0.00 0.00 85 1016.4
20260507093135 7 260 0.0 1.6 0.00 0.00 0.00 85 1016.5
20260507092621 7 260 0.0 1.6 0.00 0.00 0.00 85 1016.5
20260507092127 7 260 0.0 1.6 0.00 0.00 0.00 84 1016.5
20260507091655 7 260 0.0 1.6 0.00 0.00 0.00 84 1016.5
20260507091137 7 260 0.0 1.6 0.00 0.00 0.00 83 1016.6
20260507090633 7 260 0.0 1.6 0.00 0.00 0.00 83 1016.4
20260507090130 7 259 0.0 1.6 0.00 0.00 0.00 83 1016.5
20260507085636 7 259 0.0 1.6 0.00 0.00 0.00 83 1016.6
20260507085142 7 259 1.6 3.2 0.00 0.00 0.00 83 1016.7
20260507084628 7 259 0.0 3.2 0.00 0.00 0.00 82 1016.8
20260507084135 7 259 1.6 1.6 0.00 0.00 0.00 82 1016.8
20260507083626 7 259 0.0 1.6 0.00 0.00 0.00 82 1016.8
20260507083131 8 259 0.0 1.6 0.00 0.00 0.00 82 1016.8
20260507082637 7 259 0.0 3.2 0.00 0.00 0.00 82 1016.8
20260507082123 8 259 1.6 3.2 0.00 0.00 0.00 81 1016.9
20260507081651 8 259 1.6 3.2 0.00 0.00 0.00 81 1016.8
20260507081136 8 259 1.6 3.2 0.00 0.00 0.00 81 1016.8
20260507080630 8 259 1.6 3.2 0.00 0.00 0.00 80 1016.9
20260507080128 8 259 1.6 3.2 0.00 0.00 0.00 80 1017.1
20260507075634 8 259 1.6 3.2 0.00 0.00 0.00 80 1017.0
20260507075120 8 259 0.0 1.6 0.00 0.00 0.00 80 1017.1
20260507074627 8 259 0.0 1.6 0.00 0.00 0.00 80 1017.1
20260507074133 8 259 0.0 1.6 0.00 0.00 0.00 79 1017.2
20260507073622 8 259 0.0 1.6 0.00 0.00 0.00 79 1017.2
20260507073128 8 259 0.0 1.6 0.00 0.00 0.00 79 1017.2
20260507072634 8 259 0.0 1.6 0.00 0.00 0.00 79 1017.2
20260507072140 8 259 0.0 0.0 0.00 0.00 0.00 79 1017.4
20260507071626 8 259 0.0 1.6 0.00 0.00 0.00 78 1017.4
20260507071151 9 259 0.0 3.2 0.00 0.00 0.00 78 1017.4
20260507070627 9 259 0.0 3.2 0.00 0.00 0.00 77 1017.4
20260507070123 9 242 0.0 1.6 0.00 0.00 0.00 78 1017.4
20260507065630 9 242 0.0 1.6 0.00 0.00 0.00 78 1017.5
20260507065136 8 242 0.0 1.6 0.00 0.00 0.00 79 1017.5
20260507064622 8 242 0.0 1.6 0.00 0.00 0.00 79 1017.5
20260507064127 8 242 0.0 1.6 0.00 0.00 0.00 78 1017.6
20260507063634 9 249 0.0 1.6 0.00 0.00 0.00 78 1017.6
20260507063145 9 248 0.0 0.0 0.00 0.00 0.00 77 1017.6
20260507062649 9 248 0.0 1.6 0.00 0.00 0.00 77 1017.7
20260507062134 9 248 0.0 1.6 0.00 0.00 0.00 78 1017.7
20260507061639 9 248 0.0 1.6 0.00 0.00 0.00 79 1017.7
20260507061124 8 248 0.0 1.6 0.00 0.00 0.00 79 1017.8
20260507060639 9 248 0.0 1.6 0.00 0.00 0.00 78 1017.9
20260507060136 9 248 0.0 1.6 0.00 0.00 0.00 78 1017.8
20260507055641 8 248 0.0 0.0 0.00 0.00 0.00 79 1017.9
20260507055128 8 248 0.0 0.0 0.00 0.00 0.00 77 1017.9
20260507054632 9 248 0.0 0.0 0.00 0.00 0.00 77 1018.0
20260507054139 9 248 0.0 0.0 0.00 0.00 0.00 75 1018.1
20260507053627 10 248 0.0 3.2 0.00 0.00 0.00 73 1018.1
20260507053133 10 248 0.0 3.2 0.00 0.00 0.00 72 1018.2
20260507052624 10 253 1.6 1.6 0.00 0.00 0.00 71 1018.2
20260507052128 10 253 0.0 1.6 0.00 0.00 0.00 70 1018.1
20260507051633 10 253 1.6 3.2 0.00 0.00 0.00 70 1018.3
20260507051137 10 253 1.6 3.2 0.00 0.00 0.00 70 1018.0
20260507050627 10 254 1.6 3.2 0.00 0.00 0.00 69 1018.0
20260507050122 10 254 1.6 3.2 0.00 0.00 0.00 69 1018.1
20260507045627 10 254 1.6 3.2 0.00 0.00 0.00 68 1018.2
20260507045133 10 254 1.6 3.2 0.00 0.00 0.00 68 1018.1
20260507044638 10 254 1.6 1.6 0.00 0.00 0.00 67 1018.1
20260507044141 11 254 1.6 3.2 0.00 0.00 0.00 67 1018.1
20260507043647 11 254 1.6 3.2 0.00 0.00 0.00 66 1018.1
20260507043132 11 267 1.6 3.2 0.00 0.00 0.00 66 1018.1
20260507042638 11 267 1.6 3.2 0.00 0.00 0.00 66 1018.0
20260507042144 11 267 1.6 3.2 0.00 0.00 0.00 66 1018.0
20260507041626 11 267 1.6 3.2 0.00 0.00 0.00 66 1018.1
20260507041137 11 267 1.6 3.2 0.00 0.00 0.00 66 1018.0
20260507040634 11 267 1.6 3.2 0.00 0.00 0.00 66 1018.1
20260507040130 11 267 1.6 3.2 0.00 0.00 0.00 66 1018.1
20260507035636 11 267 1.6 3.2 0.00 0.00 0.00 66 1018.1
20260507035143 11 267 1.6 3.2 0.00 0.00 0.00 65 1018.1
20260507034627 11 267 1.6 3.2 0.00 0.00 0.00 65 1018.1
20260507034134 11 290 1.6 3.2 0.00 0.00 0.00 65 1018.1
20260507033639 11 290 1.6 1.6 0.00 0.00 0.00 65 1018.1
20260507033125 11 290 0.0 1.6 0.00 0.00 0.00 65 1018.1
20260507032630 11 290 0.0 1.6 0.00 0.00 0.00 65 1018.1
20260507032134 11 290 0.0 1.6 0.00 0.00 0.00 65 1018.1
20260507031700 11 290 1.6 3.2 0.00 0.00 0.00 65 1018.1
20260507031129 11 290 0.0 3.2 0.00 0.00 0.00 64 1018.0
20260507030645 11 293 1.6 3.2 0.00 0.00 0.00 64 1018.1
20260507030156 11 293 1.6 3.2 0.00 0.00 0.00 64 1018.1
20260507025637 11 293 1.6 3.2 0.00 0.00 0.00 64 1018.1
20260507025125 11 293 1.6 3.2 0.00 0.00 0.00 64 1018.1
20260507024631 11 293 1.6 3.2 0.00 0.00 0.00 63 1018.1
20260507024137 11 300 1.6 3.2 0.00 0.00 0.00 63 1018.1
20260507023644 11 323 1.6 3.2 0.00 0.00 0.00 63 1017.9
20260507023130 11 327 1.6 1.6 0.00 0.00 0.00 64 1018.0
20260507022635 11 326 0.0 3.2 0.00 0.00 0.00 65 1018.0
20260507022140 11 326 1.6 3.2 0.00 0.00 0.00 64 1017.9
20260507021625 11 326 1.6 3.2 0.00 0.00 0.00 63 1017.9
20260507021133 11 326 1.6 1.6 0.00 0.00 0.00 63 1017.7
20260507020628 11 326 0.0 1.6 0.00 0.00 0.00 62 1017.7
20260507020124 11 326 0.0 1.6 0.00 0.00 0.00 62 1017.7
20260507015630 11 326 0.0 1.6 0.00 0.00 0.00 62 1017.7
20260507015136 12 326 0.0 1.6 0.00 0.00 0.00 61 1017.6
20260507014624 12 326 1.6 1.6 0.00 0.00 0.00 60 1017.6
20260507014131 12 331 0.0 1.6 0.00 0.00 0.00 59 1017.6
20260507013634 12 355 0.0 1.6 0.00 0.00 0.00 59 1017.5
20260507013139 12 355 0.0 1.6 0.00 0.00 0.00 59 1017.4
20260507012625 12 355 0.0 1.6 0.00 0.00 0.00 58 1017.5
20260507012131 12 355 0.0 1.6 0.00 0.00 0.00 58 1017.3
20260507011656 12 355 0.0 1.6 0.00 0.00 0.00 57 1017.3
20260507011140 12 355 0.0 1.6 0.00 0.00 0.00 56 1017.2
20260507010636 12 355 0.0 1.6 0.00 0.00 0.00 55 1017.1
20260507010132 13 355 0.0 0.0 0.00 0.00 0.00 54 1017.2
20260507005636 13 355 0.0 0.0 0.00 0.00 0.00 54 1017.1
20260507005122 13 355 0.0 1.6 0.00 0.00 0.00 52 1017.2
20260507004628 13 355 0.0 1.6 0.00 0.00 0.00 52 1017.0
20260507004153 13 355 0.0 1.6 0.00 0.00 0.00 51 1017.0
20260507003623 13 355 0.0 1.6 0.00 0.00 0.00 49 1017.2
20260507003129 14 355 0.0 3.2 0.00 0.00 0.00 48 1017.1
20260507002635 14 355 0.0 3.2 0.00 0.00 0.00 47 1017.2
20260507002201 14 298 1.6 3.2 0.00 0.00 0.00 48 1017.2
20260507001624 14 308 1.6 8.0 0.00 0.00 0.00 47 1017.2
20260507001152 15 279 3.2 11.3 0.00 0.00 0.00 47 1017.2
20260507000625 15 232 1.6 12.9 0.00 0.00 0.00 45 1017.3
20260507000123 15 297 4.8 12.9 0.00 0.00 0.00 42 1017.3
20260506235630 15 133 1.6 4.8 0.00 0.00 0.00 41 1017.2
20260506235135 15 65 3.2 4.8 0.00 0.00 0.00 42 1017.3
20260506234659 14 68 0.0 3.2 0.00 0.00 0.00 43 1017.4
20260506234126 14 245 0.0 1.6 0.00 0.00 0.00 47 1017.2
20260506233631 14 259 0.0 1.6 0.00 0.00 0.00 44 1017.2
20260506233136 14 259 0.0 4.8 0.00 0.00 0.00 46 1017.3
20260506232625 14 259 1.6 6.4 0.00 0.00 0.00 43 1017.3
20260506232151 14 283 3.2 14.5 0.00 0.00 0.00 44 1017.3
20260506231635 15 291 1.6 14.5 0.00 0.00 0.00 39 1017.3
20260506231121 15 57 3.2 12.9 0.00 0.00 0.00 39 1017.4
20260506230637 15 76 4.8 9.7 0.00 0.00 0.00 39 1017.5
20260506230134 15 22 3.2 6.4 0.00 0.00 0.00 44 1017.5
20260506225638 15 63 1.6 6.4 0.00 0.00 0.00 40 1017.6
20260506225122 15 122 3.2 4.8 0.00 0.00 0.00 43 1017.6
20260506224626 15 306 0.0 6.4 0.00 0.00 0.00 42 1017.5
20260506224153 15 232 3.2 8.0 0.00 0.00 0.00 43 1017.6
20260506223639 15 261 1.6 8.0 0.00 0.00 0.00 49 1017.5
20260506223125 14 309 4.8 8.0 0.00 0.00 0.00 41 1017.5
20260506222651 14 223 1.6 6.4 0.00 0.00 0.00 40 1017.4
20260506222135 15 355 1.6 8.0 0.00 0.00 0.00 40 1017.5
20260506221624 15 130 4.8 8.0 0.00 0.00 0.00 40 1017.6
20260506221131 15 44 3.2 8.0 0.00 0.00 0.00 38 1017.6
20260506220628 15 360 4.8 8.0 0.00 0.00 0.00 42 1017.7
20260506220125 14 255 1.6 8.0 0.00 0.00 0.00 41 1017.7
20260506215651 15 321 1.6 11.3 0.00 0.00 0.00 38 1017.7
20260506215136 15 194 1.6 11.3 0.00 0.00 0.00 43 1017.7
20260506214701 15 46 4.8 9.7 0.00 0.00 0.00 42 1017.8
20260506214126 15 323 1.6 9.7 0.00 0.00 0.00 40 1017.7
20260506213651 15 73 3.2 12.9 0.00 0.00 0.00 40 1017.8
20260506213137 15 19 4.8 14.5 0.00 0.00 0.00 43 1017.8
20260506212622 15 335 4.8 14.5 0.00 0.00 0.00 42 1017.9
20260506212129 15 311 3.2 8.0 0.00 0.00 0.00 39 1018.0
20260506211657 15 78 3.2 9.7 0.00 0.00 0.00 39 1018.1
20260506211121 15 5 3.2 9.7 0.00 0.00 0.00 46 1018.2
20260506210637 15 35 4.8 9.7 0.00 0.03 0.00 39 1018.3
20260506210153 15 139 3.2 6.4 0.00 0.03 0.00 42 1018.3
20260506205621 15 304 3.2 12.9 0.00 0.03 0.00 43 1018.4
20260506205128 15 34 3.2 12.9 0.00 0.03 0.00 49 1018.3
20260506204634 15 84 4.8 8.0 0.00 0.03 0.00 44 1018.5
20260506204138 15 260 1.6 6.4 0.00 0.03 0.00 52 1018.6
20260506203624 15 316 3.2 6.4 0.00 0.03 0.00 46 1018.7
20260506203128 15 305 1.6 8.0 0.00 0.03 0.00 43 1018.7
20260506202634 15 304 1.6 8.0 0.00 0.03 0.00 46 1019.0
20260506202138 15 342 3.2 6.4 0.00 0.03 0.00 46 1018.9
20260506201703 15 324 3.2 6.4 0.00 0.03 0.00 46 1019.0
20260506201137 15 175 1.6 4.8 0.00 0.03 0.00 45 1019.1
20260506200633 14 263 1.6 8.0 0.00 0.03 0.00 44 1019.1
20260506200140 14 58 3.2 8.0 0.00 0.03 0.00 42 1019.2
20260506195625 15 287 3.2 8.0 0.00 0.03 0.00 45 1019.2
20260506195149 14 131 1.6 8.0 0.00 0.03 0.00 42 1019.4
20260506194655 14 60 3.2 8.0 0.00 0.03 0.00 46 1019.4
20260506194123 14 5 3.2 14.5 0.00 0.03 0.00 44 1019.4
20260506193630 13 61 4.8 17.7 0.00 0.03 0.00 40 1019.5
20260506193135 14 47 6.4 17.7 0.00 0.03 0.00 40 1019.4
20260506192621 15 79 6.4 17.7 0.00 0.03 0.00 42 1019.5
20260506192128 15 63 6.4 14.5 0.00 0.03 0.00 43 1019.5
20260506191635 14 104 3.2 14.5 0.00 0.03 0.00 47 1019.5
20260506191141 14 53 6.4 17.7 0.00 0.03 0.00 43 1019.4
20260506190637 15 55 4.8 17.7 0.00 0.03 0.00 47 1019.5
20260506190133 15 49 6.4 16.1 0.00 0.03 0.00 47 1019.5
20260506185637 14 51 6.4 14.5 0.00 0.03 0.00 51 1019.3
20260506185123 14 345 6.4 14.5 0.00 0.03 0.00 45 1019.5
20260506184634 13 14 4.8 14.5 0.00 0.03 0.00 48 1019.5
20260506184139 13 321 4.8 17.7 0.00 0.03 0.00 45 1019.4
20260506183625 13 340 3.2 17.7 0.00 0.03 0.00 50 1019.4
20260506183152 13 44 1.6 8.0 0.00 0.03 0.00 52 1019.5
20260506182635 13 240 1.6 8.0 0.00 0.03 0.00 49 1019.6
20260506182138 14 118 4.8 9.7 0.00 0.03 0.00 50 1019.6
20260506181624 14 248 3.2 9.7 0.00 0.03 0.00 53 1019.8
20260506181129 13 24 1.6 9.7 0.00 0.03 0.00 45 1019.6
20260506180625 14 22 4.8 9.7 0.00 0.05 0.00 45 1019.6
20260506180121 13 321 4.8 17.7 0.00 0.05 0.00 48 1019.8
20260506175647 14 296 4.8 17.7 0.00 0.05 0.00 49 1019.7
20260506175132 13 79 4.8 11.3 0.00 0.05 0.00 50 1019.7
20260506174624 13 311 3.2 14.5 0.00 0.05 0.00 50 1019.8
20260506174150 13 67 3.2 14.5 0.00 0.05 0.00 48 1019.8
20260506173656 13 126 1.6 6.4 0.00 0.05 0.00 46 1020.1
20260506173121 13 271 3.2 12.9 0.00 0.05 0.00 51 1020.2
20260506172627 13 269 3.2 12.9 0.00 0.05 0.00 53 1020.2
20260506172131 13 350 1.6 8.0 0.00 0.05 0.00 51 1020.1
20260506171639 13 253 4.8 8.0 0.00 0.05 0.00 46 1020.0
20260506171125 13 271 3.2 8.0 0.00 0.05 0.00 53 1020.3
20260506170621 13 167 1.6 6.4 0.00 0.10 0.00 60 1020.3